Weather History for Lee's Summit, MO

Change the Weather History Date:

Friday, January 25, 2013

  Actual Average (KMKC) Record (KMKC)
Temperature  
Mean Temperature 34 °F -  
Max Temperature 46 °F 37 °F 57 °F (2002)
Min Temperature 21 °F 21 °F 6 °F (1997)
Degree Days  
Heating Degree Days 32    
Moisture  
Dew Point 14 °F    
Average Humidity 46    
Maximum Humidity 58    
Minimum Humidity 30    
Precipitation  
Precipitation 0.00 in - - ()
Sea Level Pressure  
Sea Level Pressure 30.22 in    
Wind  
Wind Speed 5 mph (West)    
Max Wind Speed 10 mph    
Max Gust Speed -    
Visibility 10 miles    
Events      
Averages and records for this station are not official NWS values.
T = Trace of Precipitation, MM = Missing Value Source: NWS Daily Summary

Daily Weather History Graph

Daily Weather History Graph

Search for Another Location

Airport:

Trip Planner

Search our weather history database for the weather conditions in past years. The results will help you decide how hot, cold, wet, or windy it might be!

Date:

Astronomy

Jan. 25, 2013 Rise Set
Actual Time 7:29 AM CST 5:31 PM CST
Civil Twilight 7:00 AM CST 5:59 PM CST
Nautical Twilight 6:28 AM CST 6:31 PM CST
Astronomical Twilight 5:56 AM CST 7:03 PM CST
Moon 4:28 PM CST (1/25) 6:09 AM CST (1/25)
Length of Visible Light 10h 58m
Length of Day
10h 01m
Waxing Gibbous, 98% of the Moon is Illuminated
Jan 25
Waxing Gibbous
Jan 26
Full
Feb 3
Last Quarter
Feb 10
New
Feb 17
First Quarter

Hourly Weather History & Observations

Time (CST) Temp. Windchill Dew Point Humidity Pressure Visibility Wind Dir Wind Speed Gust Speed Precip Events Conditions
12:53 AM 26.1 °F 21.9 °F 10.0 °F 51% 30.20 in 10.0 mi NE 3.5 mph - N/A   Overcast
1:53 AM 26.1 °F 16.8 °F 10.0 °F 51% 30.22 in 10.0 mi North 9.2 mph - N/A   Overcast
2:53 AM 25.0 °F 18.1 °F 10.0 °F 53% 30.21 in 10.0 mi NNE 5.8 mph - N/A   Overcast
3:08 AM 24.8 °F 16.1 °F 8.6 °F 50% 30.16 in 10.0 mi North 8.1 mph - N/A   Overcast
3:53 AM 25.0 °F 19.3 °F 9.0 °F 51% 30.18 in 10.0 mi NNE 4.6 mph - N/A   Overcast
4:53 AM 25.0 °F 20.7 °F 9.0 °F 51% 30.18 in 10.0 mi NW 3.5 mph - N/A   Overcast
5:53 AM 24.1 °F - 9.0 °F 53% 30.17 in 10.0 mi Calm Calm - N/A   Partly Cloudy
6:53 AM 23.0 °F - 9.0 °F 55% 30.22 in 10.0 mi Calm Calm - N/A   Clear
7:53 AM 21.9 °F - 9.0 °F 58% 30.22 in 10.0 mi Calm Calm - N/A   Clear
8:53 AM 26.1 °F 21.9 °F 10.9 °F 53% 30.23 in 10.0 mi WNW 3.5 mph - N/A   Clear
9:53 AM 30.9 °F 22.2 °F 14.0 °F 50% 30.23 in 10.0 mi WNW 10.4 mph - N/A   Clear
10:53 AM 35.1 °F 28.6 °F 14.0 °F 42% 30.24 in 10.0 mi NW 8.1 mph - N/A   Clear
11:53 AM 37.9 °F 32.1 °F 14.0 °F 38% 30.24 in 10.0 mi West 8.1 mph - N/A   Clear
12:53 PM 41.0 °F 37.1 °F 15.1 °F 35% 30.22 in 10.0 mi WSW 5.8 mph - N/A   Clear
1:53 PM 43.0 °F 38.8 °F 17.1 °F 35% 30.20 in 10.0 mi WSW 6.9 mph - N/A   Clear
2:53 PM 46.0 °F 44.8 °F 17.1 °F 31% 30.20 in 10.0 mi West 3.5 mph - N/A   Clear
3:53 PM 46.9 °F - 17.1 °F 30% 30.20 in 10.0 mi West 4.6 mph - N/A   Clear
4:53 PM 44.1 °F 40.1 °F 18.0 °F 35% 30.20 in 10.0 mi SW 6.9 mph - N/A   Clear
5:53 PM 39.9 °F 36.7 °F 18.0 °F 41% 30.22 in 10.0 mi SW 4.6 mph - N/A   Clear
6:53 PM 39.0 °F 35.7 °F 19.0 °F 45% 30.23 in 10.0 mi SW 4.6 mph - N/A   Clear
7:53 PM 37.0 °F 32.4 °F 19.0 °F 48% 30.25 in 10.0 mi SW 5.8 mph - N/A   Clear
8:53 PM 37.9 °F 34.4 °F 19.0 °F 47% 30.25 in 10.0 mi SW 4.6 mph - N/A   Clear
9:53 PM 39.0 °F 35.7 °F 19.0 °F 45% 30.25 in 10.0 mi West 4.6 mph - N/A   Clear
10:53 PM 36.0 °F 32.1 °F 19.0 °F 50% 30.26 in 10.0 mi WSW 4.6 mph - N/A   Clear
11:53 PM 36.0 °F 32.1 °F 19.9 °F 52% 30.27 in 10.0 mi SW 4.6 mph - N/A   Clear